GW0416 Weather Reports


Display with metric or nautical units.
time (UTC)temp
F
wind
direction
speed
MPH
gust
MPH
rain 1hr
in
rain 24hr
in
rain mn
in
humidity
%
barometer
mb
20260902011536 79 132 8.0 13.0 0.00 0.00 0.00 27 1009.0
20260902010034 81 161 8.0 13.0 0.00 0.00 0.00 24 1009.0
20260902004539 81 142 8.0 11.0 0.00 0.00 0.00 25 1009.1
20260902003037 81 128 7.0 12.0 0.00 0.00 0.00 25 1009.1
20260902001534 81 144 8.0 14.0 0.00 0.00 0.00 25 1009.3
20260902000037 81 129 11.0 16.0 0.00 0.00 0.00 25 1009.5
20260901234537 81 129 13.0 17.0 0.00 0.00 0.00 26 1009.4
20260901233036 81 153 11.0 16.0 0.00 0.00 0.00 26 1009.6
20260901231535 81 165 10.0 19.0 0.00 0.00 0.00 26 1009.8
20260901230039 81 165 11.0 22.0 0.00 0.00 0.00 26 1009.8
20260901224534 81 169 8.0 17.0 0.00 0.00 0.00 26 1010.0
20260901223038 82 172 10.0 19.0 0.00 0.00 0.00 26 1010.0
20260901221534 81 161 11.0 22.0 0.00 0.00 0.00 26 1010.3
20260901214533 80 179 10.0 18.0 0.00 0.00 0.00 26 1010.5
20260901213101 81 161 7.0 19.0 0.00 0.00 0.00 26 1010.7
20260901211537 80 173 9.0 20.0 0.00 0.00 0.00 27 1010.8
20260901210035 80 152 9.0 20.0 0.00 0.00 0.00 26 1011.0
20260901204539 80 155 13.0 20.0 0.00 0.00 0.00 26 1011.0
20260901203052 80 150 12.0 21.0 0.00 0.00 0.00 26 1011.2
20260901201535 80 142 12.0 22.0 0.00 0.00 0.00 27 1011.5
20260901200037 79 170 12.0 23.0 0.00 0.00 0.00 28 1011.6
20260901194542 78 150 15.0 23.0 0.00 0.00 0.00 29 1011.8
20260901193046 78 138 13.0 22.0 0.00 0.00 0.00 29 1011.9
20260901191535 78 138 17.0 28.0 0.00 0.00 0.00 29 1012.0
20260901190036 77 145 15.0 23.0 0.00 0.00 0.00 32 1012.1
20260901184534 77 142 16.0 26.0 0.00 0.00 0.00 31 1012.5
20260901183045 76 133 13.0 24.0 0.00 0.00 0.00 32 1012.6
20260901181537 75 135 15.0 22.0 0.00 0.00 0.00 35 1012.7
20260901180034 74 136 16.0 24.0 0.00 0.00 0.00 35 1012.9
20260901174534 73 153 13.0 20.0 0.00 0.00 0.00 38 1013.0
20260901173050 71 138 14.0 22.0 0.00 0.00 0.00 40 1013.2
20260901171540 69 146 13.0 24.0 0.00 0.00 0.00 42 1013.2
20260901170034 69 132 14.0 22.0 0.00 0.00 0.00 42 1013.4
20260901164536 69 155 16.0 23.0 0.00 0.00 0.00 43 1013.4
20260901163036 68 164 12.0 20.0 0.00 0.00 0.00 44 1013.5
20260901161537 67 145 11.0 18.0 0.00 0.00 0.00 45 1013.5
20260901160038 66 131 13.0 17.0 0.00 0.00 0.00 47 1013.6
20260901154538 65 147 8.0 14.0 0.00 0.00 0.00 48 1013.7
20260901153036 64 156 6.0 10.0 0.00 0.00 0.00 51 1013.9
20260901151534 64 171 5.0 9.0 0.00 0.00 0.00 53 1013.9
20260901150036 63 129 2.0 6.0 0.00 0.00 0.00 55 1014.1
20260901144534 61 115 5.0 8.0 0.00 0.00 0.00 57 1013.9
20260901143043 59 86 3.0 5.0 0.00 0.00 0.00 61 1013.8
20260901141542 57 65 3.0 5.0 0.00 0.00 0.00 68 1013.8
20260901140050 55 351 1.0 3.0 0.00 0.00 0.00 72 1013.6
20260901134537 53 355 1.0 3.0 0.00 0.00 0.00 76 1013.5
20260901133038 51 355 2.0 5.0 0.00 0.00 0.00 78 1013.6
20260901131538 50 355 3.0 5.0 0.00 0.00 0.00 78 1013.5
20260901130043 49 14 3.0 5.0 0.00 0.00 0.00 78 1013.5
20260901124537 49 21 4.0 6.0 0.00 0.00 0.00 77 1013.6
20260901123035 49 38 4.0 5.0 0.00 0.00 0.00 77 1013.6
20260901121533 49 44 3.0 5.0 0.00 0.00 0.00 76 1013.7
20260901120049 49 42 5.0 8.0 0.00 0.00 0.00 75 1013.6
20260901114535 49 24 3.0 5.0 0.00 0.00 0.00 73 1013.8
20260901113043 51 36 4.0 5.0 0.00 0.00 0.00 69 1013.9
20260901111621 52 56 3.0 7.0 0.00 0.00 0.00 68 1014.0
20260901110042 53 57 5.0 8.0 0.00 0.00 0.00 67 1013.9
20260901104538 55 73 5.0 7.0 0.00 0.00 0.00 63 1013.8
20260901103039 55 97 4.0 6.0 0.00 0.00 0.00 64 1014.0
20260901101537 55 96 3.0 8.0 0.00 0.00 0.00 63 1014.0
20260901100039 54 83 4.0 7.0 0.00 0.00 0.00 64 1014.1
20260901094539 55 90 4.0 7.0 0.00 0.00 0.00 64 1014.1
20260901093039 55 115 4.0 7.0 0.00 0.00 0.00 63 1014.1
20260901091538 56 117 4.0 7.0 0.00 0.00 0.00 61 1014.0
20260901090039 56 134 4.0 7.0 0.00 0.00 0.00 62 1014.1
20260901084539 56 132 3.0 5.0 0.00 0.00 0.00 61 1014.1
20260901083039 56 150 2.0 3.0 0.00 0.00 0.00 61 1014.1
20260901081537 56 157 1.0 3.0 0.00 0.00 0.00 60 1014.3
20260901080036 56 155 4.0 5.0 0.00 0.00 0.00 60 1014.4
20260901074535 57 146 3.0 5.0 0.00 0.00 0.00 58 1014.4
20260901073037 57 126 3.0 6.0 0.00 0.00 0.00 59 1014.5
20260901071536 56 109 2.0 4.0 0.00 0.00 0.00 60 1014.5
20260901070036 58 128 6.0 8.0 0.00 0.00 0.00 56 1014.4
20260901064534 58 130 6.0 8.0 0.00 0.00 0.00 56 1014.5
20260901063038 57 86 2.0 7.0 0.00 0.00 0.00 57 1014.5
20260901061536 57 142 4.0 7.0 0.00 0.00 0.00 56 1014.7
20260901060035 58 146 5.0 9.0 0.00 0.00 0.00 54 1014.5
20260901054538 58 159 6.0 9.0 0.00 0.00 0.00 54 1014.8
20260901053052 58 132 3.0 5.0 0.00 0.00 0.00 53 1014.9
20260901051548 60 148 4.0 6.0 0.00 0.00 0.00 51 1014.9
20260901050036 60 136 4.0 6.0 0.00 0.00 0.00 51 1015.0
20260901044551 60 103 3.0 4.0 0.00 0.00 0.00 50 1015.0
20260901043036 61 118 5.0 7.0 0.00 0.00 0.00 50 1014.9
20260901041535 60 118 4.0 6.0 0.00 0.00 0.00 51 1015.0
20260901040058 62 120 5.0 8.0 0.00 0.00 0.00 48 1014.9
20260901034537 62 132 7.0 8.0 0.00 0.00 0.00 48 1014.8
20260901033037 63 126 7.0 8.0 0.00 0.00 0.00 46 1014.6
20260901031535 64 113 6.0 7.0 0.00 0.00 0.00 45 1014.5
20260901030036 65 118 4.0 7.0 0.00 0.00 0.00 43 1014.4
20260901024535 66 95 3.0 5.0 0.00 0.00 0.00 43 1014.5
20260901023051 69 141 3.0 5.0 0.00 0.00 0.00 38 1014.4
20260901021537 70 150 3.0 6.0 0.00 0.00 0.00 37 1014.4
20260901020043 70 151 4.0 6.0 0.00 0.00 0.00 38 1014.5
20260901014550 71 157 4.0 5.0 0.00 0.00 0.00 37 1014.4
20260901013036 72 183 4.0 8.0 0.00 0.00 0.00 36 1014.4